User: anonymous   Login
Location: Fort Wayne
(41.1310°N, 85.1290°W)
Time: 10:09:25
(UTC-04:00)
Language:

Gbstr 26 Del rocket - Orbit

View from above orbital plane
View from above orbital plane
View from above satellite
View from above satellite

Ground track
Ground track

The orbit data is extracted from the following two-line orbital elements,

1 25876U 99041E   15243.78759052  .00000134  00000-0  62692-4 0  9996
2 25876  51.7693  21.6168 0534142 278.6578  75.4218 14.03387556822558
Epoch (UTC): 31 August 2015 18:54:07
Eccentricity: 0.0534142
inclination: 51.7693°
perigee height: 494 km
apogee height: 1270 km
right ascension of ascending node: 21.6168°
argument of perigee: 278.6578°
revolutions per day: 14.03387556
mean anomaly at epoch: 75.4218°
orbit number at epoch: 82255

The dashed part of the orbit path shows where the satellite is in the earth's shadow,  

DLR